Regional Weather Roundup
Issued by NWS

Home | Current Version | Previous Version | Graphics & Text | Print | Product List | Glossary On
Versions: 1 2 3 4 5 6 7 8 9 10 11 12 13 14 15 16 17 18 19 20 21 22 23 24 25 26 27 28 29 30 31 32 33 34 35 36 37 38 39 40 41 42 43 44 45 46 47 48 49 50
000
ASUS43 KLMK 021702
RWRKY
KENTUCKY REGIONAL WEATHER ROUNDUP
NATIONAL WEATHER SERVICE LOUISVILLE KY
100 PM EDT THU OCT 02 2014

NOTE "FAIR" INDICATES FEW OR NO CLOUDS BELOW 12,000 FEET
WITH NO SIGNIFICANT WEATHER AND/OR OBSTRUCTIONS TO VISIBILITY.

KYZ001>023-026-027-061>063-070>075-021800-
WESTERN AND SOUTH CENTRAL KENTUCKY

CITY           SKY/WX    TMP DP  RH WIND       PRES   REMARKS
PADUCAH        PTSUNNY   84  70  62 S8G18     29.90F
HENDERSON      NOT AVBL
OWENSBORO      SUNNY     87  66  49 S16       29.94F
HOPKINSVILLE   SUNNY     85  66  52 S13G21    29.96F
BOWLING GREEN  SUNNY     86  62  44 S13G22    30.00F
GLASGOW        NOT AVBL
$$

KYZ024-025-028>034-038-045-046-053-021800-
NORTH CENTRAL KENTUCKY

CITY           SKY/WX    TMP DP  RH WIND       PRES   REMARKS
LOUISVILLE/SDF MOSUNNY   85  63  47 S12       29.98F
LOUISVILLE/LOU MOSUNNY   83  62  49 SW9       29.99F
FORT KNOX      SUNNY     84  64  50 S10       29.98F
$$

KYZ035>037-039>044-047>052-055>060-089>105-021800-
NORTHEAST KENTUCKY

CITY           SKY/WX    TMP DP  RH WIND       PRES   REMARKS
LEXINGTON      SUNNY     86  59  39 S15       30.02F
COVINGTON      MOSUNNY   83  58  42 S15G21    29.99F
FRANKFORT      SUNNY     83  59  44 S13G21    30.01F
$$

KYZ054-064>069-076>088-106>120-021800-
SOUTHEAST KENTUCKY

CITY           SKY/WX    TMP DP  RH WIND       PRES   REMARKS
JACKSON        MOSUNNY   77  59  53 VRB6      30.09F
LONDON         SUNNY     81  61  50 SW8       30.08F
SOMERSET       SUNNY     81  61  50 S6        30.07F
MIDDLESBORO    SUNNY     77  61  57 S8        30.10F
MONTICELLO     MOSUNNY   84  64  50 S13       30.07F
$$



USA.gov is the U.S. government's official web portal to all federal, state and local government web resources and services.